FW3835 Weather Reports


Display with metric or nautical units.
time (UTC)temp
F
wind
direction
speed
MPH
gust
MPH
rain 1hr
in
rain 24hr
in
rain mn
in
humidity
%
barometer
mb
20260906070018 64 105 2.0 8.0 0.00 0.05 0.00 81 1018.2
20260906064533 65 103 3.0 7.0 0.00 0.05 0.00 81 1018.1
20260906063027 65 132 1.0 3.0 0.00 0.05 0.00 81 1018.3
20260906061509 65 133 2.0 8.0 0.00 0.05 0.00 80 1018.2
20260906060022 65 113 3.0 7.0 0.00 0.05 0.00 80 1018.2
20260906054520 65 90 1.0 6.0 0.00 0.05 0.00 80 1018.3
20260906053030 65 92 2.0 4.0 0.00 0.05 0.00 79 1018.3
20260906051532 65 89 2.0 6.0 0.00 0.05 0.00 78 1018.2
20260906050012 65 95 3.0 7.0 0.00 0.05 0.00 78 1018.1
20260906044520 66 139 3.0 7.0 0.00 0.05 0.05 78 1018.0
20260906043026 66 142 2.0 6.0 0.00 0.05 0.05 78 1018.2
20260906041538 66 142 1.0 8.0 0.00 0.05 0.05 78 1018.4
20260906040033 66 132 1.0 6.0 0.00 0.05 0.05 77 1018.7
20260906034525 66 155 1.0 6.0 0.00 0.05 0.05 77 1018.6
20260906033025 66 171 1.0 8.0 0.00 0.05 0.05 76 1018.6
20260906031524 66 120 1.0 3.0 0.00 0.05 0.05 75 1018.5
20260906030031 66 121 2.0 10.0 0.00 0.05 0.05 75 1018.4
20260906024532 66 100 3.0 9.0 0.00 0.05 0.05 75 1018.1
20260906023017 67 92 3.0 9.0 0.00 0.05 0.05 75 1017.9
20260906021519 67 102 3.0 8.0 0.00 0.05 0.05 75 1017.8
20260906020026 66 91 4.0 10.0 0.00 0.05 0.05 75 1017.9
20260906014534 67 101 4.0 12.0 0.00 0.05 0.05 75 1017.2
20260906013033 67 144 1.0 7.0 0.00 0.05 0.05 74 1017.3
20260906011516 67 99 2.0 8.0 0.00 0.05 0.05 74 1017.3
20260906010026 68 119 2.0 6.0 0.00 0.05 0.05 73 1017.2
20260906004531 69 130 4.0 11.0 0.00 0.05 0.05 72 1016.6
20260906003032 69 97 4.0 9.0 0.00 0.05 0.05 71 1016.5
20260906001534 70 147 4.0 9.0 0.00 0.05 0.05 71 1015.9
20260906000024 71 130 4.0 9.0 0.00 0.05 0.05 70 1015.6
20260905234527 71 98 3.0 11.0 0.00 0.05 0.05 70 1015.7
20260905233030 72 140 5.0 13.0 0.00 0.05 0.05 69 1015.5
20260905231531 72 98 3.0 11.0 0.00 0.05 0.05 69 1015.5
20260905230032 74 117 3.0 10.0 0.00 0.05 0.05 67 1015.7
20260905224525 75 97 2.0 6.0 0.00 0.05 0.05 66 1015.7
20260905223031 76 88 2.0 6.0 0.00 0.05 0.05 65 1015.3
20260905221538 76 175 1.0 6.0 0.00 0.05 0.05 67 1015.1
20260905220033 74 169 1.0 9.0 0.00 0.05 0.05 68 1015.2
20260905214536 74 155 1.0 9.0 0.00 0.05 0.05 69 1015.5
20260905213033 74 83 2.0 10.0 0.00 0.05 0.05 70 1015.7
20260905211532 74 126 2.0 6.0 0.00 0.05 0.05 68 1016.0
20260905210034 74 153 2.0 5.0 0.00 0.05 0.05 69 1015.9
20260905204535 73 70 3.0 13.0 0.00 0.05 0.05 71 1016.3
20260905203024 71 105 6.0 13.0 0.01 0.05 0.05 72 1016.3
20260905201528 71 78 2.0 9.0 0.03 0.05 0.05 75 1016.8
20260905200006 69 184 1.0 8.0 0.03 0.05 0.05 79 1017.6
20260905194516 66 149 2.0 10.0 0.05 0.05 0.05 80 1017.1
20260905193019 65 64 3.0 6.0 0.04 0.04 0.04 78 1017.3
20260905191526 65 213 0.0 4.0 0.02 0.02 0.02 77 1019.6
20260905190041 66 68 5.0 9.0 0.02 0.02 0.02 75 1018.6
20260905184508 66 70 0.0 3.0 0.00 0.00 0.00 75 1020.0
20260905183017 67 313 0.0 2.0 0.00 0.00 0.00 74 1021.4
20260905181524 68 313 1.0 2.0 0.00 0.00 0.00 74 1021.0
20260905180026 68 313 0.0 4.0 0.00 0.00 0.00 72 1020.6
20260905174538 70 69 0.0 3.0 0.00 0.00 0.00 69 1020.2
20260905173024 71 69 1.0 5.0 0.00 0.00 0.00 66 1019.3
20260905171523 72 26 1.0 9.0 0.00 0.00 0.00 67 1018.8
20260905170024 70 114 2.0 4.0 0.00 0.00 0.00 69 1019.4
20260905164528 70 115 1.0 4.0 0.00 0.00 0.00 67 1019.3
20260905163034 70 122 1.0 6.0 0.00 0.00 0.00 69 1018.6
20260905161512 69 84 4.0 8.0 0.00 0.00 0.00 70 1018.2
20260905160026 69 103 2.0 8.0 0.00 0.00 0.00 70 1018.1
20260905154531 68 90 1.0 10.0 0.00 0.00 0.00 71 1018.1
20260905153030 69 96 2.0 9.0 0.00 0.00 0.00 70 1017.8
20260905151514 69 115 3.0 12.0 0.00 0.00 0.00 70 1017.6
20260905150016 68 32 2.0 7.0 0.00 0.00 0.00 71 1017.7
20260905144527 65 142 3.0 9.0 0.00 0.00 0.00 74 1017.5
20260905143031 65 120 4.0 10.0 0.00 0.00 0.00 74 1017.8
20260905141531 65 90 2.0 9.0 0.00 0.00 0.00 74 1017.9
20260905140016 64 118 1.0 6.0 0.00 0.00 0.00 75 1017.9
20260905134523 65 113 4.0 7.0 0.00 0.00 0.00 73 1017.6
20260905133024 65 77 2.0 10.0 0.00 0.00 0.00 74 1017.5
20260905131546 64 96 3.0 8.0 0.00 0.00 0.00 76 1017.6
20260905130035 64 96 2.0 10.0 0.00 0.00 0.00 78 1017.8
20260905124535 63 80 2.0 7.0 0.00 0.00 0.00 79 1018.0
20260905123023 63 152 0.0 5.0 0.00 0.00 0.00 79 1017.9
20260905121533 63 211 3.0 9.0 0.00 0.00 0.00 79 1018.0
20260905120033 63 114 1.0 6.0 0.00 0.00 0.00 79 1017.8
20260905114541 63 124 1.0 9.0 0.00 0.00 0.00 79 1017.5
20260905113023 63 105 3.0 10.0 0.00 0.00 0.00 79 1017.2
20260905111510 63 96 4.0 9.0 0.00 0.00 0.00 79 1016.8
20260905110007 63 172 2.0 8.0 0.00 0.00 0.00 80 1016.8
20260905104512 63 138 1.0 10.0 0.00 0.00 0.00 79 1016.4
20260905103028 63 127 3.0 8.0 0.00 0.00 0.00 79 1016.1
20260905101527 63 96 1.0 7.0 0.00 0.00 0.00 79 1016.3
20260905100007 63 44 3.0 8.0 0.00 0.00 0.00 79 1016.2
20260905094508 63 106 1.0 9.0 0.00 0.00 0.00 79 1016.1
20260905093012 63 92 4.0 10.0 0.00 0.00 0.00 79 1016.0
20260905091519 63 90 2.0 7.0 0.00 0.00 0.00 79 1016.5
20260905090033 63 74 2.0 9.0 0.00 0.00 0.00 79 1016.6
20260905084520 63 223 1.0 8.0 0.00 0.00 0.00 79 1016.7
20260905083017 63 84 2.0 9.0 0.00 0.00 0.00 79 1016.7
20260905081516 63 88 1.0 9.0 0.00 0.00 0.00 78 1016.6
20260905080023 64 99 2.0 8.0 0.00 0.00 0.00 78 1016.8
20260905074528 64 118 1.0 6.0 0.00 0.00 0.00 78 1017.0
20260905073014 64 78 1.0 11.0 0.00 0.00 0.00 78 1017.0
20260905071510 64 86 2.0 7.0 0.00 0.00 0.00 78 1017.1